• In Deutschland
  • Länderverzeichnis
  • Für 7 Tage
  • Wassertemperatur
  • Satellitenkarten
  • Wetterkarte
  • Widgets
  • user-avatar
    Anmelden

    Stündliche Wetter Quibdó

    Heute, 21 September, Donnerstag

    Zeit Temperatur Niederschläge Wind Luftdruck Luftfeuchtigkeit
    00:00 +24°C° 0,2 mm 0 m/S 751 mmHg 96%
    01:00 +23°C° 0 mm 0 m/S 751 mmHg 96%
    02:00 +23°C° 0 mm 0 m/S 751 mmHg 95%
    03:00 +23°C° 0 mm 0 m/S 751 mmHg 95%
    04:00 +23°C° 0 mm 0 m/S 751 mmHg 95%
    05:00 +24°C° 0 mm 0 m/S 751 mmHg 94%
    06:00 +24°C° 0 mm 0 m/S 751 mmHg 93%
    07:00 +25°C° 0 mm 0 m/S 751 mmHg 90%
    08:00 +27°C° 0,3 mm 0 m/S 751 mmHg 84%
    09:00 +30°C° 0,3 mm 1 m/S 751 mmHg 77%
    10:00 +32°C° 0,3 mm 1 m/S 751 mmHg 71%
    11:00 +32°C° 0,6 mm 1 m/S 750 mmHg 71%
    12:00 +33°C° 0,6 mm 1 m/S 750 mmHg 72%
    13:00 +33°C° 0,6 mm 1 m/S 749 mmHg 72%
    14:00 +32°C° 0,7 mm 1 m/S 749 mmHg 75%
    15:00 +31°C° 0,7 mm 1 m/S 748 mmHg 78%
    16:00 +31°C° 0,7 mm 1 m/S 748 mmHg 80%
    17:00 +29°C° 0,6 mm 1 m/S 748 mmHg 85%
    18:00 +28°C° 0,6 mm 1 m/S 749 mmHg 90%
    19:00 +27°C° 0,6 mm 1 m/S 749 mmHg 95%
    20:00 +27°C° 2 mm 1 m/S 750 mmHg 95%
    21:00 +26°C° 2 mm 1 m/S 750 mmHg 96%
    22:00 +24°C° 2 mm 0 m/S 751 mmHg 96%
    23:00 +24°C° 1,3 mm 0 m/S 751 mmHg 96%

    Morgen, 22 September, Freitag

    Zeit Temperatur Niederschläge Wind Luftdruck Luftfeuchtigkeit
    00:00 +24°C° 1,3 mm 0 m/S 751 mmHg 96%
    01:00 +24°C° 1,3 mm 0 m/S 750 mmHg 96%
    02:00 +24°C° 0,3 mm 0 m/S 750 mmHg 96%
    03:00 +24°C° 0,3 mm 0 m/S 750 mmHg 96%
    04:00 +24°C° 0,3 mm 0 m/S 750 mmHg 96%
    05:00 +24°C° 0,1 mm 0 m/S 750 mmHg 95%
    06:00 +24°C° 0,1 mm 0 m/S 750 mmHg 94%
    07:00 +24°C° 0,1 mm 0 m/S 751 mmHg 93%
    08:00 +26°C° 0,4 mm 0 m/S 751 mmHg 88%
    09:00 +30°C° 0,4 mm 1 m/S 751 mmHg 82%
    10:00 +31°C° 0,4 mm 1 m/S 751 mmHg 77%
    11:00 +31°C° 0,7 mm 1 m/S 750 mmHg 76%
    12:00 +32°C° 0,7 mm 1 m/S 749 mmHg 75%
    13:00 +32°C° 0,7 mm 2 m/S 749 mmHg 74%
    14:00 +31°C° 1,7 mm 2 m/S 748 mmHg 79%
    15:00 +30°C° 1,7 mm 1 m/S 748 mmHg 84%
    16:00 +29°C° 1,7 mm 1 m/S 747 mmHg 90%
    17:00 +28°C° 2,1 mm 1 m/S 748 mmHg 92%
    18:00 +27°C° 2,1 mm 1 m/S 748 mmHg 94%
    19:00 +26°C° 2,1 mm 1 m/S 749 mmHg 96%
    20:00 +24°C° 2,3 mm 0 m/S 749 mmHg 96%
    21:00 +24°C° 2,3 mm 0 m/S 750 mmHg 96%
    22:00 +24°C° 2,3 mm 0 m/S 750 mmHg 96%
    23:00 +24°C° 0,6 mm 0 m/S 750 mmHg 96%

    übermorgen, 23 September, Samstag

    Zeit Temperatur Niederschläge Wind Luftdruck Luftfeuchtigkeit
    00:00 +24°C° 0,6 mm 0 m/S 750 mmHg 96%
    01:00 +24°C° 0,6 mm 0 m/S 750 mmHg 96%
    02:00 +24°C° 0,3 mm 0 m/S 750 mmHg 96%
    03:00 +24°C° 0,3 mm 0 m/S 749 mmHg 96%
    04:00 +23°C° 0,3 mm 0 m/S 749 mmHg 95%
    05:00 +24°C° 0,1 mm 0 m/S 750 mmHg 95%
    06:00 +24°C° 0,1 mm 0 m/S 750 mmHg 94%
    07:00 +24°C° 0,1 mm 0 m/S 750 mmHg 93%
    08:00 +26°C° 0,3 mm 0 m/S 751 mmHg 88%
    09:00 +27°C° 0,3 mm 0 m/S 751 mmHg 84%
    10:00 +30°C° 0,3 mm 1 m/S 751 mmHg 79%
    11:00 +31°C° 0,8 mm 1 m/S 750 mmHg 78%
    12:00 +31°C° 0,8 mm 1 m/S 750 mmHg 77%
    13:00 +32°C° 0,8 mm 2 m/S 749 mmHg 76%
    14:00 +31°C° 1,6 mm 1 m/S 748 mmHg 81%
    15:00 +30°C° 1,6 mm 1 m/S 748 mmHg 86%
    16:00 +29°C° 1,6 mm 1 m/S 748 mmHg 91%
    17:00 +28°C° 2,1 mm 1 m/S 748 mmHg 93%
    18:00 +27°C° 2,1 mm 1 m/S 749 mmHg 94%
    19:00 +26°C° 2,1 mm 1 m/S 750 mmHg 96%
    20:00 +26°C° 1,4 mm 1 m/S 750 mmHg 96%
    21:00 +24°C° 1,4 mm 0 m/S 751 mmHg 96%
    22:00 +24°C° 1,4 mm 0 m/S 751 mmHg 96%
    23:00 +24°C° 0,6 mm 0 m/S 751 mmHg 96%

    24 September, Sonntag

    Zeit Temperatur Niederschläge Wind Luftdruck Luftfeuchtigkeit
    00:00 +23°C° 0,6 mm 0 m/S 751 mmHg 96%
    01:00 +23°C° 0,6 mm 0 m/S 750 mmHg 96%
    02:00 +23°C° 1 mm 0 m/S 750 mmHg 96%
    03:00 +23°C° 1 mm 0 m/S 750 mmHg 95%
    04:00 +23°C° 1 mm 0 m/S 750 mmHg 95%
    05:00 +23°C° 0,5 mm 0 m/S 750 mmHg 94%
    06:00 +24°C° 0,5 mm 0 m/S 750 mmHg 93%
    07:00 +24°C° 0,5 mm 0 m/S 751 mmHg 92%
    08:00 +28°C° 0,1 mm 1 m/S 750 mmHg 86%
    09:00 +29°C° 0,1 mm 1 m/S 750 mmHg 80%
    10:00 +31°C° 0,1 mm 1 m/S 750 mmHg 75%
    11:00 +31°C° 0,4 mm 2 m/S 750 mmHg 75%
    12:00 +32°C° 0,4 mm 2 m/S 749 mmHg 76%
    13:00 +32°C° 0,4 mm 2 m/S 748 mmHg 77%
    14:00 +30°C° 1,4 mm 2 m/S 748 mmHg 83%
    15:00 +29°C° 1,4 mm 2 m/S 748 mmHg 88%
    16:00 +28°C° 1,4 mm 1 m/S 747 mmHg 94%
    17:00 +27°C° 4,2 mm 1 m/S 748 mmHg 95%
    18:00 +26°C° 4,2 mm 1 m/S 749 mmHg 96%
    19:00 +26°C° 4,2 mm 1 m/S 749 mmHg 97%
    20:00 +26°C° 6,2 mm 1 m/S 750 mmHg 97%
    21:00 +26°C° 6,2 mm 1 m/S 751 mmHg 97%
    22:00 +24°C° 6,2 mm 0 m/S 751 mmHg 96%
    23:00 +24°C° 5,4 mm 0 m/S 751 mmHg 96%

    25 September, Montag

    Zeit Temperatur Niederschläge Wind Luftdruck Luftfeuchtigkeit
    00:00 +23°C° 5,4 mm 0 m/S 751 mmHg 96%
    01:00 +23°C° 5,4 mm 0 m/S 750 mmHg 96%
    02:00 +23°C° 3 mm 0 m/S 750 mmHg 96%
    03:00 +23°C° 3 mm 0 m/S 750 mmHg 96%
    04:00 +23°C° 3 mm 0 m/S 750 mmHg 96%
    05:00 +23°C° 2,6 mm 0 m/S 750 mmHg 95%
    06:00 +23°C° 2,6 mm 0 m/S 751 mmHg 95%
    07:00 +23°C° 2,6 mm 0 m/S 751 mmHg 95%
    08:00 +26°C° 0,9 mm 1 m/S 751 mmHg 91%
    09:00 +27°C° 0,9 mm 1 m/S 751 mmHg 88%
    10:00 +28°C° 0,9 mm 1 m/S 751 mmHg 85%
    11:00 +29°C° 0,5 mm 1 m/S 751 mmHg 85%
    12:00 +29°C° 0,5 mm 1 m/S 750 mmHg 84%
    13:00 +30°C° 0,5 mm 1 m/S 749 mmHg 83%
    14:00 +30°C° 0,9 mm 1 m/S 748 mmHg 85%
    15:00 +29°C° 0,9 mm 1 m/S 748 mmHg 86%
    16:00 +29°C° 0,9 mm 1 m/S 747 mmHg 88%
    17:00 +28°C° 0,5 mm 1 m/S 748 mmHg 91%
    18:00 +27°C° 0,5 mm 1 m/S 749 mmHg 94%
    19:00 +26°C° 0,5 mm 1 m/S 750 mmHg 97%
    20:00 +26°C° 0,9 mm 1 m/S 750 mmHg 96%
    21:00 +23°C° 0,9 mm 0 m/S 751 mmHg 96%
    22:00 +23°C° 0,9 mm 0 m/S 751 mmHg 96%
    23:00 +23°C° 1,2 mm 0 m/S 751 mmHg 96%

    26 September, Dienstag

    Zeit Temperatur Niederschläge Wind Luftdruck Luftfeuchtigkeit
    00:00 +23°C° 1,2 mm 0 m/S 751 mmHg 96%
    01:00 +23°C° 1,2 mm 0 m/S 750 mmHg 95%
    02:00 +23°C° 0,9 mm 0 m/S 750 mmHg 95%
    03:00 +23°C° 0,9 mm 0 m/S 750 mmHg 95%
    04:00 +22°C° 0,9 mm 0 m/S 750 mmHg 95%
    05:00 +23°C° 0,3 mm 0 m/S 750 mmHg 94%
    06:00 +23°C° 0,3 mm 0 m/S 751 mmHg 93%
    07:00 +23°C° 0,3 mm 0 m/S 751 mmHg 92%
    08:00 +25°C° 0,3 mm 0 m/S 751 mmHg 86%
    09:00 +29°C° 0,3 mm 1 m/S 751 mmHg 81%
    10:00 +31°C° 0,3 mm 1 m/S 751 mmHg 75%
    11:00 +31°C° 0,9 mm 1 m/S 750 mmHg 75%
    12:00 +31°C° 0,9 mm 1 m/S 750 mmHg 75%
    13:00 +32°C° 0,9 mm 1 m/S 749 mmHg 75%
    14:00 +31°C° 1,2 mm 1 m/S 748 mmHg 79%
    15:00 +30°C° 1,2 mm 1 m/S 748 mmHg 84%
    16:00 +29°C° 1,2 mm 1 m/S 748 mmHg 88%
    17:00 +28°C° 1,3 mm 1 m/S 748 mmHg 91%
    18:00 +27°C° 1,3 mm 1 m/S 749 mmHg 93%
    19:00 +24°C° 1,3 mm 0 m/S 750 mmHg 96%
    20:00 +24°C° 1,4 mm 0 m/S 750 mmHg 96%
    21:00 +24°C° 1,4 mm 0 m/S 751 mmHg 96%
    22:00 +24°C° 1,4 mm 0 m/S 751 mmHg 96%
    23:00 +23°C° 1,2 mm 0 m/S 751 mmHg 96%
    Mehr zeigen